EW7305 Weather Reports


time (UTC)temp
F
wind
direction
speed
knots
gust
knots
rain 1hr
in
rain 24hr
in
rain mn
in
humidity
%
barometer
mb
20200803144332 73 226 5.2 7.8 0.00 0.10 0.00 81 1016.6
20200803143819 74 218 4.3 7.0 0.00 0.10 0.00 81 1016.6
20200803143327 74 135 2.6 7.8 0.00 0.10 0.00 82 1016.6
20200803142834 73 160 5.2 7.8 0.00 0.10 0.00 82 1016.5
20200803142322 73 186 3.5 6.1 0.00 0.10 0.00 82 1016.5
20200803141830 73 148 1.7 5.2 0.00 0.10 0.00 85 1016.6
20200803141317 72 155 1.7 6.1 0.00 0.10 0.00 87 1016.6
20200803140825 72 148 2.6 6.1 0.00 0.10 0.00 87 1016.6
20200803140317 71 151 4.3 7.0 0.00 0.10 0.00 89 1016.6
20200803135825 71 166 2.6 7.0 0.00 0.10 0.00 91 1016.6
20200803135333 70 177 3.5 7.0 0.00 0.10 0.00 92 1016.5
20200803134821 69 185 3.5 6.1 0.00 0.10 0.00 95 1016.6
20200803134329 69 146 1.7 5.2 0.00 0.10 0.00 96 1016.6
20200803133816 68 113 2.6 5.2 0.00 0.10 0.00 97 1016.8
20200803133325 68 142 2.6 6.1 0.00 0.10 0.00 97 1016.8
20200803132834 67 201 2.6 5.2 0.00 0.10 0.00 98 1016.8
20200803132320 67 141 1.7 6.1 0.00 0.10 0.00 98 1016.8
20200803130330 66 155 2.6 5.2 0.00 0.10 0.00 98 1016.7
20200803125822 66 143 1.7 5.2 0.00 0.10 0.00 98 1016.7
20200803125332 65 121 2.6 5.2 0.00 0.10 0.00 98 1016.7
20200803124819 65 170 3.5 6.1 0.00 0.10 0.00 98 1016.7
20200803124327 65 107 1.7 5.2 0.00 0.10 0.00 98 1016.6
20200803123815 65 137 3.5 5.2 0.00 0.10 0.00 98 1016.7
20200803123322 65 143 1.7 5.2 0.00 0.10 0.00 98 1016.6
20200803122831 65 134 1.7 4.3 0.00 0.10 0.00 98 1016.6
20200803122320 65 181 0.9 4.3 0.00 0.10 0.00 98 1016.5
20200803121829 65 179 1.7 4.3 0.00 0.10 0.00 98 1016.5
20200803121321 65 170 0.9 2.6 0.00 0.10 0.00 98 1016.5
20200803120829 64 117 0.9 3.5 0.00 0.11 0.00 98 1016.6
20200803120317 64 184 1.7 5.2 0.00 0.11 0.00 98 1016.6
20200803115825 64 176 2.6 5.2 0.00 0.11 0.00 98 1016.7
20200803115332 64 207 1.7 2.6 0.00 0.11 0.00 98 1016.6
20200803114820 64 156 0.0 1.7 0.00 0.11 0.00 98 1016.5
20200803114329 64 167 0.0 4.3 0.00 0.11 0.00 98 1016.4
20200803113835 64 169 1.7 3.5 0.00 0.11 0.00 98 1016.4
20200803113323 64 139 1.7 3.5 0.00 0.11 0.00 98 1016.4
20200803112815 64 160 1.7 4.3 0.00 0.11 0.00 98 1016.3
20200803112323 64 139 2.6 4.3 0.00 0.11 0.00 98 1016.3
20200803111831 64 153 1.7 3.5 0.00 0.11 0.00 98 1016.2
20200803111319 64 160 0.9 2.6 0.00 0.11 0.00 98 1016.1
20200803110828 64 169 0.9 2.6 0.00 0.14 0.00 98 1016.0
20200803110336 63 151 0.9 2.6 0.00 0.14 0.00 98 1015.9
20200803105823 63 143 0.9 2.6 0.00 0.14 0.00 98 1016.0
20200803105331 64 164 0.0 1.7 0.00 0.14 0.00 98 1015.9
20200803104818 63 158 0.0 1.7 0.00 0.14 0.00 98 1015.8
20200803104330 63 152 0.0 1.7 0.00 0.14 0.00 98 1015.9
20200803103817 63 155 0.0 1.7 0.00 0.14 0.00 98 1015.9
20200803103326 63 172 0.9 1.7 0.00 0.14 0.00 98 1015.8
20200803102834 63 148 0.0 1.7 0.00 0.14 0.00 98 1015.8
20200803102322 63 108 0.9 1.7 0.00 0.14 0.00 98 1015.9
20200803101830 63 161 0.9 1.7 0.00 0.14 0.00 98 1015.8
20200803101318 63 141 0.9 1.7 0.00 0.14 0.00 98 1015.9
20200803100826 63 158 1.7 2.6 0.00 0.14 0.00 98 1015.9
20200803100334 63 165 0.0 3.5 0.00 0.14 0.00 98 1015.9
20200803095826 63 145 1.7 3.5 0.00 0.14 0.00 98 1015.8
20200803095334 63 171 1.7 3.5 0.00 0.14 0.00 98 1015.8
20200803094823 63 177 0.9 3.5 0.00 0.14 0.00 98 1015.8
20200803094330 63 141 0.9 4.3 0.00 0.14 0.00 98 1015.8
20200803093818 63 184 2.6 5.2 0.00 0.14 0.00 98 1015.7
20200803093326 63 166 3.5 5.2 0.00 0.14 0.00 98 1015.8
20200803092834 63 146 1.7 3.5 0.00 0.14 0.00 98 1015.7
20200803092322 63 165 2.6 4.3 0.00 0.14 0.00 98 1015.6
20200803091830 63 192 2.6 4.3 0.00 0.14 0.00 98 1015.6
20200803091322 63 176 1.7 2.6 0.00 0.14 0.00 98 1015.5
20200803090830 63 163 1.7 2.6 0.00 0.14 0.00 98 1015.4
20200803090317 63 193 0.9 2.6 0.00 0.14 0.00 98 1015.4
20200803085824 63 153 0.0 2.6 0.00 0.14 0.00 98 1015.4
20200803085333 63 134 0.0 2.6 0.00 0.14 0.00 98 1015.5
20200803084821 63 158 0.9 2.6 0.00 0.14 0.00 98 1015.5
20200803084330 63 151 0.9 2.6 0.00 0.14 0.00 98 1015.5
20200803083818 63 145 0.9 3.5 0.00 0.14 0.00 98 1015.6
20200803083326 63 155 2.6 3.5 0.00 0.14 0.00 98 1015.7
20200803082818 63 191 0.9 2.6 0.00 0.14 0.00 98 1015.7
20200803082326 63 148 1.7 3.5 0.00 0.14 0.00 98 1015.7
20200803081833 63 164 0.9 3.5 0.00 0.14 0.00 98 1015.7
20200803081321 63 166 0.9 3.5 0.00 0.14 0.00 98 1015.6
20200803080830 63 121 1.7 3.5 0.00 0.14 0.00 98 1015.7
20200803080317 63 164 1.7 3.5 0.00 0.14 0.00 98 1015.7
20200803075824 63 169 0.9 3.5 0.00 0.14 0.00 98 1015.7
20200803075333 63 164 0.9 2.6 0.00 0.14 0.00 98 1015.7
20200803074822 63 153 1.7 2.6 0.00 0.14 0.00 98 1015.6
20200803074332 63 207 0.9 1.7 0.00 0.14 0.00 98 1015.5
20200803073823 63 164 0.9 1.7 0.00 0.14 0.00 98 1015.5
20200803073331 63 195 0.0 0.9 0.00 0.14 0.00 98 1015.5
20200803072818 64 209 0.0 0.9 0.00 0.14 0.00 98 1015.5
20200803072327 64 209 0.0 1.7 0.00 0.14 0.00 98 1015.5
20200803071836 64 153 0.9 1.7 0.00 0.14 0.00 98 1015.5
20200803071323 64 250 0.0 1.7 0.00 0.14 0.00 98 1015.6
20200803070831 64 260 0.9 1.7 0.00 0.14 0.00 98 1015.7
20200803070319 64 222 0.0 0.9 0.00 0.14 0.00 98 1015.8
20200803065827 64 214 0.0 1.7 0.00 0.14 0.00 98 1015.8
20200803065318 64 211 0.0 2.6 0.00 0.14 0.00 98 1015.8
20200803064830 64 123 1.7 5.2 0.00 0.14 0.00 98 1015.9
20200803064316 64 221 2.6 5.2 0.00 0.14 0.00 98 1015.8
20200803063824 64 230 2.6 4.3 0.00 0.14 0.00 98 1015.9
20200803063333 64 212 0.9 4.3 0.00 0.14 0.00 98 1015.8
20200803062821 64 206 1.7 3.5 0.00 0.14 0.00 98 1015.9
20200803062329 64 197 0.9 7.0 0.00 0.14 0.00 98 1015.9
20200803061816 64 215 0.9 7.0 0.00 0.14 0.00 98 1015.9
20200803061325 64 235 5.2 7.0 0.00 0.14 0.00 98 1015.9
20200803060817 64 200 2.6 6.1 0.00 0.14 0.00 98 1015.9
20200803060325 64 207 3.5 6.1 0.00 0.14 0.00 98 1015.9
20200803055833 64 178 3.5 6.1 0.00 0.14 0.00 98 1015.8
20200803055321 64 237 2.6 6.1 0.00 0.14 0.00 98 1015.8
20200803054829 64 188 2.6 5.2 0.00 0.14 0.00 98 1015.7
20200803054337 64 211 3.5 5.2 0.00 0.14 0.00 98 1015.7
20200803053822 64 214 2.6 6.1 0.00 0.14 0.00 98 1015.6
20200803053329 64 182 2.6 5.2 0.00 0.14 0.00 98 1015.5
20200803052818 64 200 2.6 5.2 0.00 0.14 0.00 98 1015.5
20200803052330 64 207 1.7 5.2 0.00 0.14 0.00 98 1015.6
20200803051819 64 235 1.7 3.5 0.00 0.14 0.00 98 1015.5
20200803051327 64 207 0.9 5.2 0.00 0.14 0.00 97 1015.5
20200803050835 64 222 3.5 6.1 0.00 0.14 0.00 97 1015.5
20200803050323 64 222 3.5 4.3 0.00 0.14 0.00 97 1015.5
20200803045829 64 192 1.7 4.3 0.00 0.14 0.00 97 1015.5
20200803045317 64 177 2.6 4.3 0.00 0.14 0.00 97 1015.5
20200803044825 64 196 1.7 3.5 0.00 0.14 0.00 97 1015.6
20200803044333 64 172 1.7 3.5 0.00 0.14 0.00 97 1015.5
20200803043825 64 184 2.6 3.5 0.00 0.14 0.00 97 1015.4
20200803043334 64 230 1.7 5.2 0.00 0.14 0.00 97 1015.3
20200803042822 64 251 0.9 3.5 0.00 0.14 0.00 97 1015.3
20200803042331 64 219 0.9 2.6 0.00 0.14 0.00 97 1015.3
20200803041818 64 219 0.9 4.3 0.00 0.14 0.00 97 1015.3
20200803041326 64 207 1.7 4.3 0.00 0.14 0.00 97 1015.3
20200803040836 65 215 1.7 4.3 0.00 0.14 0.14 97 1015.3
20200803040323 65 205 1.7 4.3 0.00 0.14 0.14 97 1015.2
20200803035831 65 212 2.6 5.2 0.00 0.14 0.14 97 1015.1
20200803035323 65 193 2.6 6.1 0.00 0.14 0.14 97 1015.0
20200803034831 65 217 4.3 6.1 0.00 0.14 0.14 97 1015.1
20200803034320 65 238 2.6 4.3 0.00 0.14 0.14 97 1015.1
20200803033828 65 203 1.7 7.0 0.00 0.14 0.14 97 1015.2
20200803033316 65 193 1.7 4.3 0.00 0.14 0.14 97 1015.2
20200803032825 65 244 0.9 4.3 0.00 0.14 0.14 97 1015.2
20200803032332 65 166 0.9 4.3 0.00 0.14 0.14 97 1015.1
20200803031820 65 229 1.7 3.5 0.00 0.14 0.14 97 1015.2
20200803031328 65 295 2.6 6.1 0.00 0.14 0.14 97 1015.2
20200803030820 65 250 4.3 6.1 0.00 0.14 0.14 97 1015.1
20200803030329 65 207 3.5 6.1 0.00 0.14 0.14 97 1015.1
20200803025816 65 216 1.7 6.1 0.00 0.14 0.14 97 1015.1
20200803025324 65 219 3.5 7.0 0.00 0.14 0.14 97 1015.0
20200803024830 65 236 3.5 7.0 0.00 0.14 0.14 97 1015.0
20200803024317 65 157 2.6 7.8 0.00 0.14 0.14 97 1015.1
20200803023825 65 219 4.3 7.8 0.00 0.14 0.14 97 1015.1
20200803023333 65 238 2.6 5.2 0.00 0.14 0.14 97 1015.0
20200803022822 65 221 1.7 7.0 0.00 0.14 0.14 97 1015.0
20200803022329 65 224 2.6 7.0 0.00 0.14 0.14 97 1015.0
20200803021820 65 218 2.6 6.1 0.00 0.14 0.14 97 1015.0
20200803021328 65 226 1.7 6.1 0.00 0.14 0.14 97 1014.9
20200803020816 65 353 0.9 5.2 0.00 0.22 0.14 97 1014.8
20200803020324 65 359 0.9 1.7 0.00 0.22 0.14 97 1015.0
20200803015833 65 264 0.0 1.7 0.00 0.22 0.14 97 1014.8
20200803015321 65 264 0.0 2.6 0.00 0.22 0.14 97 1014.7
20200803014829 65 258 0.9 3.5 0.00 0.22 0.14 97 1014.6
20200803014317 65 233 1.7 4.3 0.00 0.22 0.14 97 1014.6
20200803013825 65 266 0.9 4.3 0.00 0.22 0.14 97 1014.5
20200803013319 65 238 1.7 4.3 0.00 0.22 0.14 97 1014.4
20200803012827 65 217 1.7 4.3 0.00 0.22 0.14 97 1014.2
20200803012316 65 213 1.7 6.1 0.00 0.22 0.14 97 1014.1
20200803011824 65 251 3.5 6.1 0.00 0.22 0.14 97 1014.0
20200803011332 65 244 2.6 6.1 0.00 0.22 0.14 97 1014.0
20200803010819 65 221 2.6 7.0 0.00 0.24 0.14 97 1013.9
20200803010328 65 248 3.5 7.0 0.00 0.24 0.14 97 1013.8
20200803005836 65 246 2.6 8.7 0.00 0.24 0.14 97 1013.7
20200803005323 65 217 3.5 8.7 0.00 0.24 0.14 97 1013.6
20200803004835 65 210 2.6 7.8 0.00 0.24 0.14 97 1013.5
20200803004322 65 216 5.2 7.8 0.00 0.24 0.14 97 1013.4
20200803003827 65 242 2.6 7.8 0.00 0.24 0.14 97 1013.4
20200803003334 65 254 3.5 7.8 0.00 0.24 0.14 97 1013.4
20200803002821 66 217 2.6 8.7 0.00 0.24 0.14 97 1013.4
20200803002328 66 235 2.6 8.7 0.00 0.24 0.14 97 1013.4
20200803001816 66 219 3.5 7.8 0.00 0.24 0.14 97 1013.3
20200803001324 66 136 3.5 8.7 0.00 0.24 0.14 97 1013.3
20200803000833 66 210 4.3 8.7 0.00 0.24 0.14 97 1013.2
20200803000325 66 236 4.3 7.8 0.00 0.24 0.14 97 1013.0
20200802235832 66 255 4.3 9.6 0.00 0.24 0.14 97 1013.0
20200802235319 66 236 5.2 9.6 0.00 0.24 0.14 97 1012.8
20200802234827 66 242 3.5 7.8 0.00 0.24 0.14 97 1012.8
20200802234334 66 263 4.3 7.8 0.00 0.24 0.14 97 1012.8
20200802233823 66 217 3.5 7.8 0.00 0.24 0.14 97 1012.7
20200802233331 66 203 4.3 8.7 0.00 0.24 0.14 97 1012.6
20200802232819 66 276 4.3 8.7 0.00 0.24 0.14 97 1012.5
20200802232328 66 266 5.2 8.7 0.00 0.24 0.14 97 1012.4
20200802231820 66 242 3.5 10.4 0.01 0.24 0.14 97 1012.3
20200802231328 66 230 4.3 9.6 0.01 0.24 0.14 97 1012.2
20200802230835 66 224 5.2 9.6 0.01 0.24 0.14 97 1012.3
20200802230323 66 217 3.5 10.4 0.01 0.24 0.14 97 1012.2
20200802225832 66 229 5.2 10.4 0.01 0.24 0.14 97 1012.1
20200802225320 66 243 4.3 10.4 0.01 0.24 0.14 97 1012.0
20200802224828 66 229 2.6 10.4 0.02 0.24 0.14 97 1012.0
20200802224316 66 231 3.5 8.7 0.02 0.24 0.14 97 1012.0
20200802223823 66 267 4.3 9.6 0.02 0.24 0.14 97 1011.9
20200802223316 66 220 3.5 7.0 0.03 0.24 0.14 97 1011.8
20200802222824 66 191 2.6 8.7 0.03 0.24 0.14 97 1011.7
20200802222332 66 251 4.3 8.7 0.04 0.24 0.14 97 1011.6
20200802221819 66 240 2.6 5.2 0.03 0.23 0.13 97 1011.6
20200802221328 66 231 1.7 5.2 0.03 0.23 0.13 97 1011.6
20200802220816 66 224 2.6 5.2 0.03 0.39 0.13 96 1011.6
20200802220325 66 250 1.7 5.2 0.03 0.39 0.13 96 1011.6
20200802215832 66 252 1.7 7.0 0.03 0.39 0.13 96 1011.6
20200802215321 66 287 0.9 7.0 0.03 0.39 0.13 96 1011.5
20200802214831 66 332 0.9 7.0 0.03 0.38 0.12 96 1011.4
20200802214322 66 229 2.6 14.8 0.03 0.38 0.12 96 1011.3
20200802213831 66 259 9.6 14.8 0.03 0.38 0.12 96 1011.2
20200802213318 66 302 8.7 13.9 0.02 0.37 0.11 96 1010.9
20200802212826 66 222 6.1 15.6 0.02 0.37 0.11 96 1010.8
20200802212333 66 188 7.8 15.6 0.01 0.36 0.10 96 1010.7
20200802211821 66 176 7.0 15.6 0.02 0.36 0.10 96 1010.6
20200802211329 67 257 6.1 11.3 0.02 0.36 0.10 96 1010.7
20200802210817 67 226 6.1 16.5 0.02 0.37 0.10 96 1010.5
20200802210324 67 252 7.8 16.5 0.02 0.37 0.10 96 1010.5
20200802205816 67 176 7.0 14.8 0.02 0.37 0.10 96 1010.4
20200802205324 67 201 6.1 14.8 0.02 0.37 0.10 96 1010.3
20200802204832 67 231 7.8 11.3 0.01 0.36 0.09 96 1010.2
20200802204320 67 225 4.3 11.3 0.01 0.36 0.09 96 1010.2
20200802203830 67 249 6.1 14.8 0.01 0.36 0.09 95 1010.2
20200802203318 67 228 10.4 14.8 0.01 0.36 0.09 95 1010.0
20200802202825 67 247 7.0 13.0 0.01 0.36 0.09 95 1010.0
20200802202334 67 208 5.2 15.6 0.01 0.36 0.09 94 1010.0
20200802201822 67 208 7.0 17.4 0.00 0.35 0.08 93 1009.9
20200802201334 68 248 7.0 17.4 0.00 0.35 0.08 92 1009.8
20200802200822 68 228 7.8 14.8 0.00 0.35 0.08 92 1009.8
20200802200331 68 236 6.1 15.6 0.00 0.35 0.08 92 1009.7
20200802195819 68 238 9.6 16.5 0.00 0.35 0.08 92 1009.6
20200802195328 68 235 9.6 16.5 0.00 0.35 0.08 92 1009.6
20200802194835 68 172 7.8 14.8 0.00 0.35 0.08 92 1009.5
20200802194323 68 219 6.1 13.9 0.01 0.35 0.08 91 1009.5
20200802193831 68 255 8.7 15.6 0.01 0.35 0.08 90 1009.4
20200802193319 69 227 7.8 16.5 0.01 0.35 0.08 90 1009.4
20200802192832 69 224 8.7 16.5 0.01 0.35 0.08 90 1009.3
20200802192319 69 243 7.8 16.5 0.01 0.35 0.08 90 1009.2
20200802191826 69 245 7.8 17.4 0.01 0.35 0.08 90 1009.1
20200802191335 69 233 6.1 17.4 0.01 0.35 0.08 91 1008.9
20200802190823 69 200 8.7 16.5 0.01 0.35 0.08 92 1008.9
20200802190331 69 207 7.0 11.3 0.01 0.35 0.08 93 1008.9
20200802185819 69 200 7.0 11.3 0.01 0.35 0.08 94 1008.9
20200802185327 69 221 5.2 9.6 0.01 0.35 0.08 94 1008.9
20200802184817 69 202 3.5 9.6 0.01 0.35 0.08 93 1008.8
20200802184328 69 212 6.1 12.2 0.00 0.34 0.07 93 1008.8
20200802183836 69 212 7.0 12.2 0.00 0.34 0.07 93 1008.6
20200802183323 70 203 7.0 12.2 0.00 0.34 0.07 93 1008.6
20200802182832 70 179 6.1 12.2 0.01 0.34 0.07 95 1008.6
20200802182319 69 253 5.2 11.3 0.01 0.34 0.07 95 1008.5
20200802181827 69 246 5.2 11.3 0.01 0.34 0.07 95 1008.6
20200802181315 69 230 6.1 11.3 0.01 0.34 0.07 95 1008.5
20200802180824 69 211 6.1 11.3 0.01 0.43 0.07 95 1008.4
20200802180331 69 255 5.2 12.2 0.01 0.43 0.07 95 1008.5
20200802175823 69 229 7.0 14.8 0.02 0.43 0.07 95 1008.5
20200802175332 69 225 8.7 14.8 0.02 0.43 0.07 94 1008.5
20200802174820 69 150 11.3 23.5 0.02 0.43 0.07 94 1008.3
20200802174327 69 226 9.6 23.5 0.02 0.43 0.07 95 1008.2
20200802173816 69 229 7.0 16.5 0.03 0.43 0.07 95 1008.2
20200802173324 69 114 7.8 15.6 0.03 0.43 0.07 95 1008.2
20200802172833 69 205 6.1 17.4 0.02 0.42 0.06 95 1008.1
20200802172321 69 229 8.7 18.2 0.02 0.42 0.06 95 1008.0
20200802171828 69 236 8.7 14.8 0.02 0.42 0.06 95 1008.0
20200802171321 69 225 8.7 14.8 0.02 0.42 0.06 95 1008.0
20200802170829 69 179 6.1 20.0 0.02 0.46 0.06 95 1008.0
20200802170316 70 205 11.3 20.0 0.02 0.46 0.06 94 1007.8
20200802165824 70 213 5.2 14.8 0.01 0.45 0.05 94 1007.9
20200802165332 70 214 9.6 17.4 0.01 0.45 0.05 93 1007.8
20200802164820 70 172 7.8 20.9 0.01 0.45 0.05 92 1007.9
20200802164328 71 197 10.4 20.9 0.01 0.45 0.05 91 1007.9
20200802163815 71 183 7.8 15.6 0.00 0.44 0.04 89 1007.8
20200802163324 72 152 5.2 13.0 0.00 0.44 0.04 89 1007.7
20200802162816 72 181 8.7 15.6 0.00 0.44 0.04 88 1007.8
20200802162323 72 186 8.7 15.6 0.00 0.44 0.04 89 1007.7
20200802161831 72 233 7.8 18.2 0.00 0.44 0.04 89 1007.7
20200802161319 72 195 8.7 19.1 0.00 0.44 0.04 89 1007.7
20200802160828 72 201 8.7 15.6 0.00 0.44 0.04 90 1007.6
20200802160315 72 220 11.3 18.2 0.00 0.44 0.04 89 1007.7
20200802155824 72 210 9.6 19.1 0.00 0.44 0.04 88 1007.6
20200802155332 73 212 13.0 20.0 0.00 0.44 0.04 86 1007.5
20200802154820 73 188 10.4 20.0 0.00 0.44 0.04 86 1007.4
20200802154330 74 202 11.3 19.1 0.00 0.44 0.04 85 1007.4
20200802153821 74 167 11.3 22.6 0.00 0.44 0.04 87 1007.3
20200802153329 73 187 11.3 22.6 0.00 0.44 0.04 87 1007.3
20200802152818 72 226 10.4 20.0 0.00 0.44 0.04 88 1007.3
20200802152326 72 169 9.6 20.0 0.00 0.44 0.04 89 1007.3
20200802151834 72 201 9.6 20.0 0.00 0.44 0.04 90 1007.3
20200802151321 71 182 9.6 18.2 0.00 0.44 0.04 91 1007.2
20200802150828 71 173 9.6 18.2 0.00 0.44 0.04 92 1007.3
20200802150317 71 179 7.8 17.4 0.00 0.44 0.04 92 1007.3
20200802145825 71 226 11.3 17.4 0.00 0.44 0.04 92 1007.3
20200802145317 71 167 7.8 16.5 0.00 0.44 0.04 92 1007.3
20200802144826 71 237 8.7 18.2 0.00 0.44 0.04 92 1007.3